Current weather by "City, St" or "zip code"  
 

Current Conditions: Scottsbluff, Heilig Field, NE

Fair


57.0 F

Last Updated on Oct 31 2020, 11:53 am MDT
Humidity: 34%
Wind Speed: NW 19.6 G 25.3 mph
Barometer 30.22 in
Dewpoint: 28.9 F
Visibility: 10.00 mi
Precip: --
Heat Index: NA
Wind Chill: 53 F
Current conditions at:

Scottsbluff, Heilig Field, NE (KBFF)

Lat: 41.86694 Lon: 103.58583

Local Radar Image active severe weather and emergency alerts image image weather storm and storm spotter reports image weather observation monitoring service image
Local
Radar
Active
Alerts
Storm Reports Obs
Monitoring

Sign-up For Email & Text Message Weather Alert Notification Services



Advertise Here

Observation History for Scottsbluff, Heilig Field, NE


Time Wind
(mph)
Vis
(mi)
Weather Precip (in) Temperature (F) Relative
Humidity
Wind
Chill
(F)
Heat
Index
(F)
Pressure
Air Dwpt altimeter
(in)
sea level
(mb)
Rmks
11:53 am MDT NW 19.6 G 25.3 10.00 Fair -- 57.0 28.9 34% 53 NA 30.22 1021.0
10:53 am MDT NW 15.0 10.00 A Few Clouds -- 54.0 33.1 45% 50 NA 30.20 1020.7
9:53 am MDT NW 16.1 G 23.0 10.00 Fair -- 50.0 33.1 52% 44 NA 30.16 1020.8
8:53 am MDT W 9.2 10.00 Fair -- 47.0 32.0 56% 43 NA 30.12 1019.0
7:53 am MDT NW 12.7 10.00 Fair -- 43.0 30.9 63% 36 NA 30.07 1017.7
6:53 am MDT W 9.2 10.00 Fair -- 45.0 30.9 58% 40 NA 30.03 1015.7
5:53 am MDT W 9.2 10.00 Fair -- 47.0 30.9 54% 43 NA 29.97 1013.5
4:53 am MDT NW 12.7 10.00 Fair -- 47.0 30.0 52% 41 NA 29.93 1011.3
3:53 am MDT N 15.0 10.00 Fair -- 38.0 30.0 73% 29 NA 29.89 1010.3
2:53 am MDT N 3.5 10.00 Fair -- 40.0 28.9 65% NA NA 29.84 1008.5
1:53 am MDT NW 3.5 10.00 Fair -- 40.0 28.9 65% NA NA 29.83 1008.3
12:53 am MDT SW 11.5 10.00 Fair -- 52.0 30.0 43% 48 NA 29.82 1007.4
11:53 pm MDT SW 10.4 10.00 Fair -- 57.0 28.9 34% 55 NA 29.83 1008.1
10:53 pm MDT SW 15.0 10.00 Fair -- 58.0 30.0 35% 55 NA 29.84 1008.6
9:53 pm MDT N 4.6 10.00 Fair -- 46.0 34.0 63% 44 NA 29.86 1010.7
8:53 pm MDT SW 12.7 10.00 Fair -- 53.0 36.0 52% 49 NA 29.86 1010.8
7:53 pm MDT S 8.1 10.00 Fair -- 51.0 36.0 56% 48 NA 29.89 1012.4
6:53 pm MDT S 5.8 10.00 Fair -- 54.0 37.0 53% 53 NA 29.90 1012.8
5:53 pm MDT S 8.1 10.00 Fair -- 57.0 37.9 49% 55 NA 29.92 1012.7
4:53 pm MDT SW 10.4 10.00 Fair -- 65.0 37.0 36% NA NA 29.93 1012.7
3:53 pm MDT SW 15.0 10.00 Fair -- 68.0 36.0 31% NA NA 29.96 1013.3
2:53 pm MDT SW 16.1 10.00 Fair -- 68.0 37.9 33% NA NA 29.99 1014.2
1:53 pm MDT S 9.2 10.00 Fair -- 65.0 37.9 37% NA NA 30.03 1015.7
12:53 pm MDT SE 5.8 10.00 Fair -- 60.0 37.9 44% 60 NA 30.07 1017.6

Regional Weather Observation


Chadron, Chadron Municipal Airport, NE (KCDR)

Partly Cloudy
55.0 F

Kimball, Kimball Municipal Airport/Robert E Arraj Field, NE (KIBM)

Fair
52.0 F

Alliance, Alliance Municipal Airport, NE (KAIA)

A Few Clouds
54.0 F

Cheyenne, Cheyenne Airport, WY (KCYS)

Fair and Breezy
45.0 F

Sidney, Sidney Municipal Airport, NE (KSNY)

Fair and Windy
55.0 F

Douglas, Converse County Airport, WY (KDGW)

Fair and Breezy
50.0 F